STARLINK-31349, 59317

Orbit data source: Space-Track

STARLINK-31349, 59317 is a payload satellite owned by SpaceX/Seattle (US) in LEO that was launched on Sun, 24 Mar 2024 UTC via an FALCON 9 launch vehicle from the Air Force Eastern Test Range (AFETR). Payload-class satellites include a variety of spacecraft equipped with specific instruments for various scientific and technological missions. These include communications satellites like Starlink; space stations such as the ISS; scientific satellites like the Hubble; Earth observation satellites from companies like Planet Labs, Umbra, and HawkEye 360; GPS; miniature CubeSats for education and research; and military/defense satellites.

Loading next visibility...
Identifier
59317, 2024-056X
Orbit
LEO
Country
Flag of USUS
Related business
Manufacturer
SpaceX/Seattle
Mission
Operational Commercial Communications
Bus & Motor
STARLINK V2M, Unknown motor
Mass
730 kg wet, ~700 kg dry
Launch date (UTC)
2024-03-24 (2 years ago)
Launch vehicle
FALCON 9
Launch site
Air Force Eastern Test Range (AFETR)
Object type
Payload
Rocket body
Debris
Shape & HBR
Box + 2 Pan, 17.7 m
Radar Cross Section
33.884 m², Large (>1 m²)

Expand to show TLE details & history
Last TLE update: 3 days ago

TLE from 3 days ago
0 STARLINK-31349
1 59317U 24056X   26170.61700435 -.00000319  00000-0 -20547-5 0  9992
2 59317  43.0049  15.0033 0001204 273.0404  87.0310 15.27575047126816
Epoch: 2026-06-19T14:48Z
TLE epoch observation values (Epoch: 2026-06-19T14:48:29.175Z)
Latitude
-0.00003°
Longitude
-114.96171°
Altitude
482.797 km
Speed
7.626 km/s
True Right ascension
01h 00m 00s
True Declination
0° 00' 00"
Sunlit
Object was in daylight at epoch
Visualization orbit readout
Latitude
Unknown
Longitude
Unknown
Altitude
Unknown
Speed
Unknown
Apparent Right ascension
Unknown
Apparent Declination
Unknown
Sunlit
N/A
Visualization observer readout
Local Sidereal Time
00:39:38
Azimuth
Unknown
Elevation
Unknown
Doppler factor
Unknown
Orbital elements
Apogee altitude
485.835 km
Perigee altitude
484.182 km
Semi-major axis
6,863.145 km
Eccentricity
0.00012
Inclination
43.0049°
RAAN
15.0033°
Arg. of periapsis
273.0404°
True anomaly
87.04478°
Mean anomaly
87.031°
Eccentric anomaly
87.03789°
Mean motion
3.81732 °/min
Orbital period
94.31 mins
BSTAR
-0.0000020547
Loading maneuver chart data...
Computing Atmospheric mass density...
Loading historical data...
Loading historical data...
Loading historical data...
Loading historical data...
Loading historical data...
Loading historical data...
Loading historical data...

Documentation

Showing up to 5 results
|